CZ-4B DEB

Satellite information

Favourite Embed

Satellite Type and Status

DEBRISIN ORBIT

Key statistics

Satellite CZ-4B DEB at a glance.

Uptime

4886

Days in orbit

Revolutions

≈ 14.5

Per day

Orbit

SSO

Sun Synchronous Orbit

Inclination

98.3

Latest

Satellite identification and parameters

Extended collection of information and parameters for CZ-4B DEB.

Object identification

Identified? True

Debris? True

Object name: CZ-4B DEB

International designator: 2011-079F

Object number (NORAD): 38312

Object ID (CCSDS): 38312

Country: PEOPLES REPUBLIC OF CHINA (PRC)

Current information (Y/N): Y

RCS size: SMALL

Orbital parameters

Period: 99.651 minutes

Inclination: 98.3086 deg

SMA: 7120.032 km

Apoapsis: 819.359 km

Periapsis: 664.436 km

RAAN: 97.5655 deg

Eccentricy: 0.0108794

Argument of periapsis: 47.1198 deg

Mean anomaly: 131.9103 deg

Mean motion: 14.45039836 rev/day

Mean motion (dot): 0.00004041 rev/day2

B* drag term: 0.0010878 1/REarth

Two-line elements (TLE)

Creation date: May 7, 2025, 3:14 a.m.

Reference frame: TEME

Reference center: EARTH

Epoch: May 6, 2025, 4:17 p.m. UTC

TLE line 0: 0 CZ-4B DEB

TLE line 1: 1 38312U 11079F 25126.67911355 .00004041 00000-0 10878-2 0 9993

TLE line 2: 2 38312 98.3086 97.5655 0108794 47.1198 131.9103 14.45039836646242

Live tracking on map

Real-time ground track for satellite CZ-4B DEB.

In-orbit conjunctions

A list of the most updated potential collisions computed for object CZ-4B DEB.

Target Orbit TCA Probability of collision Miss distance Type
SL-3 R/B LEO 2024-10-12 06:57:19 0.0001044269 214.0 (m) ROCKET BODY
COSMOS 1275 DEB LEO 2024-09-27 13:59:40 0.0001046976 992.0 (m) DEBRIS

Associated space launch

CZ-4B DEB was lifted into orbit during the mission ‘Long March 4B | Zi Yuan 1-02C’, on board a Long March 4B space rocket.

The launch took place on Dec. 22, 2011, 3:26 a.m. from Launch Complex 7.

For more information about the launch, click the button.

Launch to space Long March 4B | Zi Yuan 1-02C
Long March 4B | Zi Yuan 1-02C

Agency: N/A

Status: Launch Successful

Launch date: Dec. 22, 2011, 3:26 a.m. UTC

Rocket: Long March 4B

Launch pad: Launch Complex 7

Location: Taiyuan Satellite Launch Center, People's Republic of China

...

Latest news about this satellite

There are no fresh news available about this satellite. Check back as we update our databases every day.


Newsletter sign-up

Weekly statistics, charts and insights to help you stay on top of the space industry.